Location: ??
(34.9170°N, 135.5016°E)
Time: 16:42:51
(UTC+00:00)

A-11 Canister half - Visible Passes

Search period start: 26 February 2021 00:00
Search period end: 08 March 2021 00:00
Orbit: 1524 x 1684 km, 47.3° (Epoch: 25 February)

Date Brightness Start Highest point End Pass type
(mag) Time Alt. Az. Time Alt. Az. Time Alt. Az.
26 Feb 10.0 18:26:12 31° SSE 18:29:07 37° SE 18:37:29 10° ENE visible
26 Feb 9.0 20:24:33 12° WSW 20:33:40 76° NNW 20:43:04 10° NE visible
27 Feb 10.0 18:06:20 33° SE 18:07:30 34° SE 18:15:45 10° ENE visible
27 Feb 9.0 20:04:39 20° WSW 20:11:59 79° NNW 20:21:25 10° NE visible
28 Feb 10.1 17:46:18 32° SE 17:46:18 32° SE 17:53:59 10° ENE visible
28 Feb 8.9 19:44:38 29° WSW 19:50:19 82° NW 19:59:46 10° NE visible
01 Mar 10.3 17:26:11 28° ESE 17:26:11 28° ESE 17:32:12 10° ENE visible
01 Mar 8.9 19:24:30 41° WSW 19:28:39 85° NW 19:38:08 10° NE visible
02 Mar 10.5 17:05:58 24° E 17:05:58 24° E 17:10:26 10° ENE visible
02 Mar 8.9 19:04:18 55° WSW 19:06:58 88° NW 19:16:29 10° NE visible
03 Mar 10.8 16:45:41 19° E 16:45:41 19° E 16:48:37 10° ENE visible
03 Mar 8.8 18:43:59 71° SW 18:45:18 89° SE 18:54:50 10° NE visible
03 Mar 9.5 20:42:18 11° W 20:51:11 44° NNW 21:00:03 10° NE visible
04 Mar 11.0 16:25:19 14° E 16:25:19 14° E 16:26:48 10° ENE visible
04 Mar 8.9 18:23:37 85° SE 18:23:38 85° SE 18:33:11 10° NE visible
04 Mar 9.5 20:21:55 16° W 20:29:26 45° NNW 20:38:21 10° NE visible
05 Mar 11.2 16:04:53 10° ENE 16:04:53 10° ENE 16:04:58 10° ENE visible
05 Mar 9.1 18:03:11 71° ENE 18:03:11 71° ENE 18:11:31 10° NE visible
05 Mar 9.5 20:01:29 21° W 20:07:43 46° NNW 20:16:41 10° NE visible
06 Mar 9.4 17:42:42 57° ENE 17:42:42 57° ENE 17:49:52 10° ENE visible
06 Mar 9.4 19:41:00 28° WNW 19:45:59 48° NNW 19:55:01 10° NE visible
07 Mar 9.7 17:22:10 45° ENE 17:22:10 45° ENE 17:28:12 10° ENE visible
07 Mar 9.4 19:20:27 34° WNW 19:24:14 49° NNW 19:33:21 10° NE visible
